Location: Sabalos
(43.2860°N, 0.1414°E)
Time: 10:50:01
(UTC+00:00)

ATLAS 5 CENTAUR R/B - Pass Details

Date: 05 July 2020
Orbit: 534 x 1124 km, 63.4° (Epoch: 30 July)

Event Time Altitude Azimuth Distance (km) Brightness Sun altitude
Rises 21:03:19 0° 221° (SW) 2,684 4.8 -12.1°
Reaches altitude 10° 21:05:26 10° 224° (SW) 1,823 3.9 -12.3°
Maximum altitude 21:09:27 71° 308° (NW) 625 1.8 -12.8°
Drops below altitude 10° 21:14:00 10° 33° (NNE) 2,048 4.4 -13.3°
Sets 21:16:29 0° 36° (NE) 3,052 5.3 -13.6°
